SP3PDK-1 Weather Reports


time (UTC)temp
C
wind
direction
speed
KPH
gust
KPH
rain 1hr
cm
rain 24hr
cm
rain mn
cm
humidity
%
barometer
mb
20260508023417 12 0.0 0.0 0.00 0.00 0.00 78 1017.0
20260508022413 12 0.0 0.0 0.00 0.00 0.00 79 1016.9
20260508021414 12 0.0 0.0 0.00 0.00 0.00 82 1017.0
20260508020413 12 0.0 0.0 0.00 0.00 0.00 86 1016.9
20260508015417 12 0.0 0.0 0.00 0.00 0.00 86 1016.9
20260508014418 12 0.0 0.0 0.00 0.00 0.00 91 1016.8
20260508012414 12 0.0 0.0 0.00 0.00 0.00 87 1016.8
20260508011415 12 0.0 0.0 0.00 0.00 0.00 91 1016.8
20260508010418 12 0.0 0.0 0.00 0.00 0.00 90 1016.8
20260508005416 12 0.0 0.0 0.00 0.00 0.00 91 1016.8
20260508003418 12 0.0 0.0 0.00 0.00 0.00 90 1016.9
20260508002413 12 0.0 0.0 0.00 0.00 0.00 91 1016.8
20260508001417 11 0.0 0.0 0.00 0.00 0.00 92 1016.9
20260508000419 12 0.0 0.0 0.00 0.00 0.00 91 1016.9
20260507235417 12 0.0 0.0 0.00 0.00 0.00 88 1016.8
20260507234415 12 0.0 0.0 0.00 0.00 0.00 90 1016.8
20260507233416 12 0.0 0.0 0.00 0.00 0.00 90 1016.8
20260507232417 12 0.0 0.0 0.00 0.00 0.00 89 1016.7
20260507231415 12 0.0 0.0 0.00 0.00 0.00 88 1016.8
20260507230416 12 0.0 0.0 0.00 0.00 0.00 89 1016.9
20260507225414 12 0.0 0.0 0.00 0.00 0.00 88 1016.9
20260507224414 12 0.0 0.0 0.00 0.00 0.00 89 1016.8
20260507223419 13 0.0 0.0 0.00 0.00 0.00 87 1016.8
20260507222417 12 0.0 0.0 0.00 0.00 0.00 87 1016.7
20260507221413 12 0.0 0.0 0.00 0.00 0.00 88 1016.8
20260507220417 12 0.0 0.0 0.00 0.00 0.00 86 1016.6
20260507215418 12 0.0 0.0 0.00 0.00 0.00 89 1016.7
20260507212418 13 0.0 0.0 0.00 0.00 0.00 85 1016.5
20260507211416 13 0.0 0.0 0.00 0.00 0.00 86 1016.4
20260507210415 12 0.0 0.0 0.00 0.00 0.00 87 1016.3
20260507205418 13 0.0 0.0 0.00 0.00 0.00 86 1016.3
20260507204417 13 0.0 0.0 0.00 0.00 0.00 85 1016.2
20260507203416 13 0.0 0.0 0.00 0.00 0.00 84 1016.2
20260507202417 13 0.0 0.0 0.00 0.00 0.00 83 1016.2
20260507200413 13 0.0 0.0 0.00 0.00 0.00 83 1016.0
20260507195415 13 0.0 0.0 0.00 0.00 0.00 83 1015.9
20260507194413 13 0.0 0.0 0.00 0.00 0.00 81 1015.8
20260507193413 13 0.0 0.0 0.00 0.00 0.00 85 1015.8
20260507192414 13 0.0 0.0 0.00 0.00 0.00 85 1015.7
20260507191418 12 0.0 0.0 0.00 0.00 0.00 90 1015.4
20260507185419 12 0.0 0.0 0.00 0.00 0.00 88 1015.3
20260507183418 12 0.0 0.0 0.00 0.00 0.00 87 1015.2
20260507182418 12 0.0 0.0 0.00 0.00 0.00 87 1015.2
20260507181418 12 0.0 0.0 0.00 0.00 0.00 86 1015.0
20260507180413 13 0.0 0.0 0.00 0.00 0.00 84 1015.1
20260507175415 12 0.0 0.0 0.00 0.00 0.00 84 1015.1
20260507174413 12 0.0 0.0 0.00 0.00 0.00 85 1014.9
20260507173419 12 0.0 0.0 0.00 0.00 0.00 88 1014.7
20260507171415 12 0.0 0.0 0.00 0.00 0.00 86 1014.3
20260507170415 13 0.0 0.0 0.00 0.00 0.00 87 1014.0
20260507165414 13 0.0 0.0 0.00 0.00 0.00 87 1013.8
20260507163418 12 0.0 0.0 0.00 0.00 0.00 87 1013.8
20260507162417 13 0.0 0.0 0.00 0.00 0.00 89 1013.6
20260507161414 13 0.0 0.0 0.00 0.00 0.00 87 1013.5
20260507160416 13 0.0 0.0 0.00 0.00 0.00 87 1013.6
20260507155414 12 0.0 0.0 0.00 0.00 0.00 87 1013.5
20260507154414 13 0.0 0.0 0.00 0.00 0.00 88 1013.5
20260507153418 13 0.0 0.0 0.00 0.00 0.00 86 1013.5
20260507151414 13 0.0 0.0 0.00 0.00 0.00 90 1013.5
20260507150417 13 0.0 0.0 0.00 0.00 0.00 86 1013.5
20260507145417 13 0.0 0.0 0.00 0.00 0.00 88 1013.6
20260507144419 14 0.0 0.0 0.00 0.00 0.00 84 1013.5
20260507143415 13 0.0 0.0 0.00 0.00 0.00 88 1013.4
20260507142413 13 0.0 0.0 0.00 0.00 0.00 91 1013.3
20260507140414 13 0.0 0.0 0.00 0.00 0.00 95 1013.3
20260507135413 13 0.0 0.0 0.00 0.00 0.00 93 1013.4
20260507133414 13 0.0 0.0 0.00 0.00 0.00 93 1013.6
20260507132417 13 0.0 0.0 0.00 0.00 0.00 95 1013.6
20260507131418 13 0.0 0.0 0.00 0.00 0.00 95 1013.5
20260507130418 13 0.0 0.0 0.00 0.00 0.00 96 1013.2
20260507125413 12 0.0 0.0 0.00 0.00 0.00 95 1013.2
20260507124418 13 0.0 0.0 0.00 0.00 0.00 94 1013.0
20260507123413 13 0.0 0.0 0.00 0.00 0.00 94 1013.0
20260507122414 13 0.0 0.0 0.00 0.00 0.00 95 1012.8
20260507121414 13 0.0 0.0 0.00 0.00 0.00 92 1012.7
20260507120414 13 0.0 0.0 0.00 0.00 0.00 91 1012.8
20260507114413 13 0.0 0.0 0.00 0.00 0.00 90 1012.7
20260507113417 13 0.0 0.0 0.00 0.00 0.00 92 1012.5
20260507112413 13 0.0 0.0 0.00 0.00 0.00 93 1012.5
20260507111414 13 0.0 0.0 0.00 0.00 0.00 93 1012.5
20260507110413 13 0.0 0.0 0.00 0.00 0.00 93 1012.5
20260507104414 13 0.0 0.0 0.00 0.00 0.00 90 1012.3
20260507102414 14 0.0 0.0 0.00 0.00 0.00 92 1012.0
20260507101413 13 0.0 0.0 0.00 0.00 0.00 91 1011.9
20260507100417 13 0.0 0.0 0.00 0.00 0.00 91 1011.9
20260507095418 13 0.0 0.0 0.00 0.00 0.00 92 1011.8
20260507094414 13 0.0 0.0 0.00 0.00 0.00 91 1011.7
20260507093414 13 0.0 0.0 0.00 0.00 0.00 93 1011.6
20260507092414 13 0.0 0.0 0.00 0.00 0.00 94 1011.4
20260507090417 13 0.0 0.0 0.00 0.00 0.00 96 1011.2
20260507085419 13 0.0 0.0 0.00 0.00 0.00 96 1011.0
20260507084413 13 0.0 0.0 0.00 0.00 0.00 95 1011.0
20260507083413 13 0.0 0.0 0.00 0.00 0.00 94 1011.1
20260507082417 13 0.0 0.0 0.00 0.00 0.00 93 1010.8
20260507081419 13 0.0 0.0 0.00 0.00 0.00 93 1010.7
20260507080415 12 0.0 0.0 0.00 0.00 0.00 94 1010.5
20260507075413 13 0.0 0.0 0.00 0.00 0.00 95 1010.5
20260507074413 12 0.0 0.0 0.00 0.00 0.00 95 1010.5
20260507072417 12 0.0 0.0 0.00 0.00 0.00 96 1010.3
20260507071418 12 0.0 0.0 0.00 0.00 0.00 96 1010.2
20260507070413 12 0.0 0.0 0.00 0.00 0.00 96 1010.0
20260507065414 13 0.0 0.0 0.00 0.00 0.00 97 1009.7
20260507064414 12 0.0 0.0 0.00 0.00 0.00 97 1009.7
20260507063414 12 0.0 0.0 0.00 0.00 0.00 98 1009.7
20260507062413 12 0.0 0.0 0.00 0.00 0.00 10 1009.5
20260507061417 12 0.0 0.0 0.00 0.00 0.00 99 1009.5
20260507060413 12 0.0 0.0 0.00 0.00 0.00 10 1009.5
20260507055418 12 0.0 0.0 0.00 0.00 0.00 10 1009.4
20260507054417 12 0.0 0.0 0.00 0.00 0.00 99 1009.2
20260507053417 12 0.0 0.0 0.00 0.00 0.00 10 1009.1
20260507051415 12 0.0 0.0 0.00 0.00 0.00 10 1009.0
20260507045413 13 0.0 0.0 0.00 0.00 0.00 10 1008.8
20260507044418 12 0.0 0.0 0.00 0.00 0.00 10 1008.8
20260507043417 13 0.0 0.0 0.00 0.00 0.00 10 1008.7
20260507042413 13 0.0 0.0 0.00 0.00 0.00 10 1008.6
20260507041417 13 0.0 0.0 0.00 0.00 0.00 10 1008.3
20260507040418 13 0.0 0.0 0.00 0.00 0.00 99 1008.3
20260507035418 13 0.0 0.0 0.00 0.00 0.00 99 1008.2
20260507034417 13 0.0 0.0 0.00 0.00 0.00 10 1008.2
20260507032413 13 0.0 0.0 0.00 0.00 0.00 98 1008.0
20260507031413 13 0.0 0.0 0.00 0.00 0.00 99 1007.8
20260507030413 13 0.0 0.0 0.00 0.00 0.00 10 1007.7
20260507025416 13 0.0 0.0 0.00 0.00 0.00 10 1007.4
20260507024414 13 0.0 0.0 0.00 0.00 0.00 10 1007.6